FW9437 Weather Reports


time (UTC)temp
C
wind
direction
speed
KPH
gust
KPH
rain 1hr
cm
rain 24hr
cm
rain mn
cm
humidity
%
barometer
mb
20260504191600 27 179 1.6 12.9 0.00 0.00 0.00 40 1011.5
20260504190107 27 238 4.8 12.9 0.00 0.00 0.00 42 1011.8
20260504184613 27 133 3.2 16.1 0.00 0.00 0.00 43 1011.8
20260504183056 27 264 3.2 20.9 0.00 0.00 0.00 41 1011.9
20260504181552 27 291 3.2 12.9 0.00 0.00 0.00 43 1012.2
20260504180052 27 44 1.6 11.3 0.00 0.00 0.00 43 1012.4
20260504174604 27 150 3.2 12.9 0.00 0.00 0.00 43 1012.5
20260504173103 27 310 1.6 8.0 0.00 0.00 0.00 47 1012.5
20260504171558 27 56 1.6 6.4 0.00 0.00 0.00 46 1012.8
20260504081555 15 271 0.0 9.7 0.00 0.00 0.00 65 1013.9
20260504044603 13 0 0.0 3.2 0.00 0.00 0.00 66 1015.4
20260504043055 12 0 0.0 1.6 0.00 0.00 0.00 71 1015.6
20260504041556 12 0 0.0 1.6 0.00 0.00 0.00 71 1015.7
20260504040103 12 0 0.0 0.0 0.00 0.00 0.00 71 1015.8
20260504034600 12 0 0.0 1.6 0.00 0.00 0.00 70 1015.8
20260504033128 12 0 0.0 0.0 0.00 0.00 0.00 69 1015.9
20260504031558 13 0 0.0 1.6 0.00 0.00 0.00 65 1016.0
20260504030105 14 0 0.0 1.6 0.00 0.00 0.00 63 1016.0
20260504024557 15 0 0.0 1.6 0.00 0.00 0.00 60 1015.8
20260504023104 15 209 0.0 1.6 0.00 0.00 0.00 60 1015.7
20260504021559 15 0 0.0 1.6 0.00 0.00 0.00 60 1015.7
20260504020101 15 296 0.0 1.6 0.00 0.00 0.00 62 1015.6
20260504014559 14 0 0.0 0.0 0.00 0.00 0.00 65 1015.4
20260504013109 14 0 0.0 0.0 0.00 0.00 0.00 64 1015.5
20260504011556 15 0 0.0 1.6 0.00 0.00 0.00 60 1015.6
20260504010112 16 0 0.0 1.6 0.00 0.00 0.00 55 1015.7
20260504004627 17 0 0.0 1.6 0.00 0.00 0.00 51 1015.5
20260504003058 18 0 0.0 0.0 0.00 0.00 0.00 48 1015.7
20260504001601 18 0 0.0 3.2 0.00 0.00 0.00 46 1015.7
20260504000055 19 181 0.0 4.8 0.00 0.00 0.00 44 1015.8
20260503234554 20 172 3.2 8.0 0.00 0.00 0.00 42 1016.1
20260503233059 20 134 1.6 12.9 0.00 0.00 0.00 41 1016.1
20260503231557 20 150 0.0 8.0 0.00 0.00 0.00 42 1016.2
20260503230100 20 123 0.0 14.5 0.00 0.00 0.00 40 1016.4
20260503224554 21 109 1.6 8.0 0.00 0.00 0.00 39 1016.4
20260503223100 21 143 1.6 8.0 0.00 0.00 0.00 38 1016.5
20260503221555 22 187 3.2 14.5 0.00 0.00 0.00 36 1016.6
20260503220054 22 138 1.6 11.3 0.00 0.00 0.00 37 1016.7
20260503214553 23 330 3.2 8.0 0.00 0.00 0.00 36 1017.1
20260503213107 23 200 0.0 8.0 0.00 0.00 0.00 37 1017.4
20260503211554 23 122 1.6 6.4 0.00 0.00 0.00 36 1017.5
20260503210109 22 0 1.6 6.4 0.00 0.00 0.00 36 1017.9
20260503204600 22 291 0.0 8.0 0.00 0.00 0.00 40 1018.2
20260503203103 22 295 1.6 9.7 0.00 0.00 0.00 37 1018.6
20260503201603 21 134 3.2 8.0 0.00 0.00 0.00 40 1018.8
20260503200101 22 0 1.6 4.8 0.00 0.00 0.00 39 1019.3
20260503194608 21 236 1.6 11.3 0.00 0.00 0.00 40 1019.6
20260503193102 22 290 1.6 11.3 0.00 0.00 0.00 41 1019.7